| time (UTC) | temp C | wind direction | speed KPH | gust KPH | rain 1hr cm | rain 24hr cm | rain mn cm | humidity % | barometer mb |
| 20260506082255 | -1 | 143 | 12.9 | 20.9 | 0.00 | 0.00 | 0.00 | 93 | 929.5 |
| 20260506081753 | 0 | 95 | 11.3 | 20.9 | 0.00 | 0.00 | 0.00 | 92 | 929.4 |
| 20260506081250 | 0 | 96 | 14.5 | 29.0 | 0.00 | 0.00 | 0.00 | 91 | 929.3 |
| 20260506080748 | 0 | 112 | 19.3 | 29.0 | 0.00 | 0.00 | 0.00 | 90 | 929.3 |
| 20260506080244 | 0 | 107 | 16.1 | 24.1 | 0.00 | 0.00 | 0.00 | 89 | 928.9 |
| 20260506073228 | 0 | 111 | 27.4 | 38.6 | 0.00 | 0.00 | 0.00 | 93 | 928.7 |
| 20260506072725 | 0 | 114 | 20.9 | 40.2 | 0.00 | 0.00 | 0.00 | 94 | 928.6 |
| 20260506072223 | 0 | 105 | 22.5 | 35.4 | 0.00 | 0.00 | 0.00 | 95 | 928.4 |
| 20260506071720 | 0 | 72 | 29.0 | 40.2 | 0.00 | 0.00 | 0.00 | 95 | 928.5 |
| 20260506071218 | 0 | 104 | 25.7 | 49.9 | 0.00 | 0.00 | 0.00 | 96 | 928.3 |
| 20260506070714 | 0 | 103 | 32.2 | 43.5 | 0.00 | 0.00 | 0.00 | 96 | 928.5 |
| 20260506070212 | 0 | 103 | 19.3 | 24.1 | 0.00 | 0.00 | 0.00 | 97 | 928.1 |
| 20260506062148 | 0 | 68 | 29.0 | 48.3 | 0.00 | 0.00 | 0.00 | 96 | 927.1 |
| 20260506061644 | 0 | 69 | 19.3 | 41.8 | 0.00 | 0.00 | 0.00 | 96 | 927.0 |
| 20260506061142 | 1 | 103 | 24.1 | 35.4 | 0.00 | 0.00 | 0.00 | 96 | 927.0 |
| 20260506060640 | 1 | 93 | 14.5 | 38.6 | 0.00 | 0.00 | 0.00 | 95 | 926.8 |
| 20260506060137 | 1 | 69 | 12.9 | 40.2 | 0.00 | 0.00 | 0.00 | 95 | 926.8 |
| 20260506051109 | 2 | 80 | 14.5 | 25.7 | 0.00 | 0.99 | 0.99 | 90 | 926.1 |
| 20260506050607 | 2 | 53 | 14.5 | 46.7 | 0.00 | 0.99 | 0.99 | 90 | 925.6 |
| 20260506050104 | 2 | 85 | 11.3 | 27.4 | 0.00 | 0.99 | 0.99 | 91 | 925.9 |
| 20260506045057 | 2 | 56 | 24.1 | 37.0 | 0.00 | 0.99 | 0.99 | 92 | 925.9 |
| 20260506044555 | 3 | 67 | 20.9 | 35.4 | 0.00 | 0.99 | 0.99 | 92 | 925.5 |
| 20260506044052 | 3 | 71 | 27.4 | 38.6 | 0.00 | 0.99 | 0.99 | 92 | 925.5 |
| 20260506043549 | 3 | 58 | 16.1 | 41.8 | 0.00 | 0.99 | 0.99 | 91 | 925.4 |
| 20260506043047 | 4 | 85 | 24.1 | 37.0 | 0.00 | 0.99 | 0.99 | 91 | 925.6 |
| 20260506042546 | 4 | 75 | 14.5 | 29.0 | 0.00 | 0.99 | 0.99 | 91 | 925.5 |
| 20260506042044 | 4 | 63 | 12.9 | 27.4 | 0.00 | 0.99 | 0.99 | 90 | 925.4 |
| 20260506041542 | 5 | 85 | 25.7 | 29.0 | 0.00 | 0.99 | 0.99 | 90 | 925.4 |
| 20260506041038 | 5 | 84 | 12.9 | 20.9 | 0.00 | 0.99 | 0.99 | 89 | 925.1 |
| 20260506040536 | 5 | 79 | 16.1 | 24.1 | 0.00 | 0.99 | 0.99 | 89 | 924.9 |
| 20260506040032 | 5 | 47 | 16.1 | 20.9 | 0.00 | 0.99 | 0.99 | 89 | 925.1 |
| 20260506035529 | 4 | 87 | 11.3 | 20.9 | 0.00 | 0.99 | 0.99 | 89 | 925.1 |
| 20260506035026 | 4 | 96 | 8.0 | 14.5 | 0.00 | 0.99 | 0.99 | 88 | 924.8 |
| 20260506034524 | 5 | 66 | 9.7 | 16.1 | 0.00 | 0.99 | 0.99 | 88 | 924.8 |
| 20260506034020 | 5 | 70 | 12.9 | 22.5 | 0.00 | 0.99 | 0.99 | 88 | 924.5 |
| 20260506033518 | 5 | 73 | 3.2 | 22.5 | 0.00 | 0.99 | 0.99 | 87 | 924.6 |
| 20260506033015 | 5 | 67 | 14.5 | 24.1 | 0.00 | 0.99 | 0.99 | 87 | 924.4 |
| 20260506032512 | 5 | 52 | 12.9 | 27.4 | 0.00 | 0.99 | 0.99 | 86 | 924.0 |
| 20260506032008 | 5 | 51 | 14.5 | 17.7 | 0.00 | 0.99 | 0.99 | 85 | 924.0 |
| 20260506031506 | 6 | 48 | 3.2 | 8.0 | 0.00 | 0.99 | 0.99 | 84 | 923.8 |
| 20260506031003 | 5 | 71 | 8.0 | 11.3 | 0.00 | 0.99 | 0.99 | 86 | 923.7 |
| 20260506030501 | 5 | 71 | 4.8 | 11.3 | 0.00 | 0.99 | 0.99 | 85 | 923.8 |
| 20260506025958 | 6 | 50 | 3.2 | 4.8 | 0.00 | 0.99 | 0.99 | 82 | 923.6 |
| 20260506025454 | 6 | 94 | 1.6 | 3.2 | 0.00 | 0.99 | 0.99 | 82 | 923.6 |
| 20260506024951 | 6 | 197 | 4.8 | 8.0 | 0.00 | 0.99 | 0.99 | 82 | 923.6 |
| 20260506024448 | 6 | 140 | 3.2 | 4.8 | 0.00 | 0.99 | 0.99 | 81 | 923.5 |
| 20260506023943 | 6 | 87 | 0.0 | 3.2 | 0.00 | 0.99 | 0.99 | 81 | 923.3 |
| 20260506023441 | 6 | 83 | 1.6 | 4.8 | 0.00 | 0.99 | 0.99 | 82 | 923.3 |
| 20260506022937 | 6 | 81 | 6.4 | 8.0 | 0.00 | 0.99 | 0.99 | 83 | 923.3 |
| 20260506022435 | 6 | 46 | 3.2 | 3.2 | 0.00 | 0.99 | 0.99 | 82 | 923.1 |
| 20260506021933 | 7 | 144 | 4.8 | 8.0 | 0.00 | 0.99 | 0.99 | 81 | 923.1 |
| 20260506021430 | 7 | 69 | 1.6 | 1.6 | 0.00 | 0.99 | 0.99 | 80 | 923.2 |
| 20260506020927 | 7 | 21 | 1.6 | 3.2 | 0.00 | 0.99 | 0.99 | 79 | 923.6 |
| 20260506020425 | 7 | 25 | 0.0 | 3.2 | 0.00 | 0.99 | 0.99 | 79 | 923.5 |
| 20260506015921 | 7 | 90 | 1.6 | 3.2 | 0.00 | 0.99 | 0.99 | 79 | 923.5 |
| 20260506015419 | 7 | 77 | 0.0 | 3.2 | 0.00 | 0.99 | 0.99 | 78 | 923.3 |
| 20260506014916 | 7 | 47 | 0.0 | 1.6 | 0.00 | 0.99 | 0.99 | 78 | 923.5 |
| 20260506014413 | 7 | 16 | 1.6 | 3.2 | 0.00 | 0.99 | 0.99 | 77 | 923.6 |
| 20260506013909 | 8 | 18 | 3.2 | 4.8 | 0.00 | 0.99 | 0.99 | 76 | 923.1 |
| 20260506013408 | 8 | 5 | 1.6 | 3.2 | 0.00 | 0.99 | 0.99 | 75 | 923.5 |
| 20260506012903 | 8 | 251 | 1.6 | 9.7 | 0.00 | 0.99 | 0.99 | 76 | 923.5 |
| 20260506012400 | 8 | 180 | 3.2 | 4.8 | 0.00 | 0.99 | 0.99 | 74 | 923.6 |
| 20260506011857 | 8 | 226 | 11.3 | 17.7 | 0.00 | 0.99 | 0.99 | 74 | 923.5 |
| 20260506011354 | 8 | 228 | 12.9 | 16.1 | 0.00 | 0.99 | 0.99 | 74 | 923.2 |
| 20260506010851 | 9 | 255 | 8.0 | 9.7 | 0.00 | 0.99 | 0.99 | 75 | 923.9 |
| 20260506010350 | 9 | 243 | 6.4 | 9.7 | 0.00 | 0.99 | 0.99 | 76 | 923.9 |
| 20260506005846 | 9 | 219 | 6.4 | 11.3 | 0.00 | 0.99 | 0.99 | 79 | 923.5 |
| 20260506005343 | 8 | 173 | 4.8 | 9.7 | 0.00 | 0.99 | 0.99 | 80 | 923.7 |
| 20260506004838 | 8 | 151 | 4.8 | 8.0 | 0.00 | 0.99 | 0.99 | 79 | 923.5 |
| 20260506004337 | 8 | 105 | 1.6 | 4.8 | 0.00 | 0.99 | 0.99 | 81 | 923.6 |
| 20260506003833 | 8 | 203 | 4.8 | 8.0 | 0.00 | 0.99 | 0.99 | 82 | 923.5 |
| 20260506003329 | 8 | 219 | 1.6 | 4.8 | 0.00 | 0.99 | 0.99 | 84 | 923.6 |
| 20260506002825 | 8 | 117 | 6.4 | 8.0 | 0.00 | 0.99 | 0.99 | 82 | 923.7 |
| 20260506002322 | 8 | 93 | 0.0 | 3.2 | 0.00 | 0.99 | 0.99 | 82 | 923.7 |
| 20260506001817 | 8 | 64 | 0.0 | 3.2 | 0.00 | 0.99 | 0.99 | 82 | 923.2 |
| 20260506001315 | 8 | 115 | 1.6 | 8.0 | 0.18 | 0.99 | 0.99 | 81 | 923.6 |
| 20260506000812 | 8 | 7 | 3.2 | 4.8 | 0.18 | 0.99 | 0.99 | 79 | 923.3 |
| 20260506000310 | 8 | 11 | 1.6 | 4.8 | 0.13 | 0.97 | 0.97 | 79 | 923.5 |
| 20260505235806 | 8 | 205 | 9.7 | 17.7 | 0.30 | 0.97 | 0.97 | 82 | 923.7 |
| 20260505235305 | 9 | 174 | 8.0 | 11.3 | 0.18 | 0.94 | 0.94 | 81 | 923.6 |
| 20260505234800 | 10 | 148 | 1.6 | 14.5 | 0.00 | 0.91 | 0.91 | 78 | 923.5 |
| 20260505234258 | 9 | 314 | 6.4 | 11.3 | 0.00 | 0.91 | 0.91 | 72 | 923.5 |
| 20260505233755 | 10 | 217 | 9.7 | 20.9 | 0.00 | 0.91 | 0.91 | 75 | 923.5 |
| 20260505233253 | 10 | 243 | 9.7 | 11.3 | 0.00 | 0.91 | 0.91 | 74 | 923.8 |
| 20260505232750 | 10 | 254 | 9.7 | 12.9 | 0.00 | 0.91 | 0.91 | 74 | 923.6 |
| 20260505232247 | 10 | 210 | 8.0 | 12.9 | 0.00 | 0.91 | 0.91 | 73 | 923.8 |
| 20260505231743 | 10 | 245 | 6.4 | 16.1 | 0.00 | 0.91 | 0.91 | 73 | 923.7 |
| 20260505231242 | 10 | 255 | 11.3 | 14.5 | 0.00 | 0.91 | 0.91 | 72 | 923.8 |
| 20260505230740 | 10 | 274 | 8.0 | 12.9 | 0.00 | 0.91 | 0.91 | 71 | 924.0 |
| 20260505230237 | 10 | 283 | 11.3 | 16.1 | 0.00 | 0.91 | 0.91 | 72 | 923.9 |
| 20260505225733 | 10 | 223 | 8.0 | 11.3 | 0.00 | 0.91 | 0.91 | 73 | 923.9 |
| 20260505225230 | 10 | 226 | 9.7 | 11.3 | 0.00 | 0.91 | 0.91 | 73 | 924.1 |
| 20260505224725 | 10 | 0 | 6.4 | 11.3 | 0.00 | 0.91 | 0.91 | 73 | 924.1 |
| 20260505224224 | 9 | 188 | 6.4 | 20.9 | 0.00 | 0.91 | 0.91 | 74 | 924.4 |
| 20260505223721 | 9 | 234 | 9.7 | 12.9 | 0.00 | 0.91 | 0.91 | 73 | 924.3 |
| 20260505223217 | 9 | 218 | 4.8 | 16.1 | 0.00 | 0.91 | 0.91 | 74 | 924.3 |
| 20260505222713 | 8 | 200 | 6.4 | 9.7 | 0.00 | 0.91 | 0.91 | 75 | 924.4 |
| 20260505222209 | 8 | 230 | 8.0 | 11.3 | 0.00 | 0.91 | 0.91 | 76 | 924.3 |
| 20260505221707 | 8 | 245 | 8.0 | 12.9 | 0.00 | 0.91 | 0.91 | 76 | 924.3 |
| 20260505221203 | 8 | 250 | 6.4 | 14.5 | 0.00 | 0.91 | 0.91 | 76 | 924.6 |
| 20260505220700 | 9 | 259 | 6.4 | 11.3 | 0.00 | 0.91 | 0.91 | 75 | 924.3 |
| 20260505220158 | 8 | 275 | 4.8 | 12.9 | 0.00 | 0.91 | 0.91 | 74 | 924.8 |
| 20260505215655 | 9 | 236 | 8.0 | 16.1 | 0.00 | 0.91 | 0.91 | 73 | 924.6 |
| 20260505215153 | 8 | 272 | 6.4 | 14.5 | 0.00 | 0.91 | 0.91 | 76 | 924.7 |
| 20260505214651 | 8 | 219 | 4.8 | 9.7 | 0.00 | 0.91 | 0.91 | 77 | 924.8 |
| 20260505214148 | 8 | 347 | 4.8 | 8.0 | 0.00 | 0.91 | 0.91 | 77 | 924.6 |
| 20260505213645 | 8 | 250 | 1.6 | 8.0 | 0.00 | 0.91 | 0.91 | 77 | 924.8 |
| 20260505213142 | 8 | 335 | 4.8 | 9.7 | 0.00 | 0.91 | 0.91 | 77 | 924.7 |
| 20260505212638 | 8 | 315 | 3.2 | 4.8 | 0.00 | 0.91 | 0.91 | 76 | 924.8 |
| 20260505212136 | 8 | 226 | 4.8 | 11.3 | 0.00 | 0.91 | 0.91 | 75 | 924.8 |
| 20260505211632 | 8 | 199 | 4.8 | 9.7 | 0.00 | 0.91 | 0.91 | 77 | 924.9 |
| 20260505211130 | 7 | 120 | 3.2 | 8.0 | 0.00 | 0.91 | 0.91 | 78 | 924.7 |
| 20260505210626 | 7 | 208 | 4.8 | 11.3 | 0.00 | 0.91 | 0.91 | 78 | 924.6 |
| 20260505210123 | 7 | 216 | 4.8 | 8.0 | 0.00 | 0.91 | 0.91 | 78 | 924.8 |
| 20260505205621 | 7 | 227 | 4.8 | 11.3 | 0.00 | 0.91 | 0.91 | 77 | 925.1 |
| 20260505205119 | 7 | 337 | 9.7 | 12.9 | 0.00 | 0.91 | 0.91 | 78 | 925.1 |
| 20260505204615 | 7 | 182 | 4.8 | 8.0 | 0.00 | 0.91 | 0.91 | 81 | 925.3 |
| 20260505204113 | 6 | 333 | 6.4 | 9.7 | 0.00 | 0.91 | 0.91 | 85 | 925.2 |
| 20260505203609 | 6 | 273 | 8.0 | 9.7 | 0.00 | 0.91 | 0.91 | 87 | 925.2 |
| 20260505203107 | 6 | 169 | 4.8 | 4.8 | 0.00 | 0.91 | 0.91 | 89 | 925.4 |
| 20260505202602 | 5 | 311 | 3.2 | 9.7 | 0.00 | 0.91 | 0.91 | 91 | 925.7 |
| 20260505202058 | 5 | 337 | 3.2 | 9.7 | 0.00 | 0.91 | 0.91 | 92 | 925.4 |
| 20260505201555 | 5 | 238 | 4.8 | 9.7 | 0.00 | 0.91 | 0.91 | 92 | 925.4 |
| 20260505201053 | 5 | 27 | 1.6 | 3.2 | 0.00 | 0.91 | 0.91 | 93 | 925.4 |
| 20260505200550 | 5 | 300 | 3.2 | 4.8 | 0.00 | 0.91 | 0.91 | 93 | 925.3 |
| 20260505200047 | 5 | 261 | 1.6 | 8.0 | 0.00 | 0.91 | 0.91 | 92 | 925.3 |
| 20260505195543 | 5 | 192 | 4.8 | 9.7 | 0.00 | 0.91 | 0.91 | 92 | 925.6 |
| 20260505195041 | 5 | 22 | 0.0 | 0.0 | 0.00 | 0.91 | 0.91 | 93 | 925.4 |
| 20260505194538 | 5 | 329 | 1.6 | 3.2 | 0.00 | 0.91 | 0.91 | 93 | 925.2 |
| 20260505194033 | 5 | 89 | 4.8 | 4.8 | 0.00 | 0.91 | 0.91 | 93 | 925.2 |
| 20260505193531 | 5 | 147 | 6.4 | 11.3 | 0.00 | 0.91 | 0.91 | 94 | 925.2 |
| 20260505193028 | 5 | 93 | 3.2 | 4.8 | 0.00 | 0.91 | 0.91 | 94 | 925.1 |
| 20260505192526 | 4 | 167 | 3.2 | 8.0 | 0.18 | 0.91 | 0.91 | 95 | 925.4 |
| 20260505192024 | 4 | 127 | 4.8 | 9.7 | 0.30 | 0.91 | 0.91 | 95 | 925.4 |
| 20260505191522 | 4 | 122 | 4.8 | 4.8 | 0.30 | 0.89 | 0.89 | 95 | 925.5 |
| 20260505191020 | 3 | 87 | 3.2 | 4.8 | 0.48 | 0.86 | 0.86 | 95 | 925.5 |
| 20260505190514 | 3 | 61 | 1.6 | 4.8 | 0.61 | 0.84 | 0.84 | 95 | 925.7 |
| 20260505190010 | 4 | 80 | 1.6 | 3.2 | 0.61 | 0.79 | 0.79 | 96 | 925.6 |
| 20260505185507 | 3 | 76 | 0.0 | 0.0 | 0.61 | 0.74 | 0.74 | 96 | 925.9 |
| 20260505185003 | 3 | 37 | 0.0 | 0.0 | 0.66 | 0.66 | 0.66 | 96 | 925.3 |
| 20260505184500 | 3 | 39 | 0.0 | 0.0 | 0.79 | 0.61 | 0.61 | 96 | 925.6 |
| 20260505183957 | 3 | 49 | 0.0 | 0.0 | 0.48 | 0.53 | 0.53 | 96 | 925.6 |
| 20260505183454 | 2 | 46 | 0.0 | 0.0 | 0.48 | 0.48 | 0.48 | 96 | 925.7 |
| 20260505182950 | 2 | 53 | 0.0 | 0.0 | 0.48 | 0.43 | 0.43 | 96 | 925.4 |
| 20260505182447 | 2 | 50 | 0.0 | 0.0 | 0.43 | 0.41 | 0.41 | 96 | 925.5 |
| 20260505181944 | 2 | 55 | 0.0 | 0.0 | 0.13 | 0.36 | 0.36 | 96 | 925.7 |
| 20260505181441 | 2 | 71 | 0.0 | 0.0 | 0.00 | 0.33 | 0.33 | 96 | 925.7 |
| 20260505180938 | 2 | 90 | 0.0 | 0.0 | 0.00 | 0.33 | 0.33 | 96 | 925.6 |
| 20260505180434 | 2 | 87 | 3.2 | 4.8 | 0.00 | 0.33 | 0.33 | 96 | 925.5 |
| 20260505175931 | 2 | 80 | 1.6 | 4.8 | 0.00 | 0.33 | 0.33 | 96 | 925.6 |
| 20260505175427 | 2 | 100 | 1.6 | 3.2 | 0.00 | 0.33 | 0.33 | 95 | 925.4 |
| 20260505174924 | 2 | 98 | 1.6 | 3.2 | 0.00 | 0.33 | 0.33 | 95 | 925.7 |
| 20260505174422 | 1 | 140 | 3.2 | 3.2 | 0.00 | 0.33 | 0.33 | 95 | 925.7 |
| 20260505173917 | 1 | 119 | 3.2 | 4.8 | 0.00 | 0.33 | 0.33 | 95 | 925.5 |
| 20260505173414 | 1 | 122 | 0.0 | 3.2 | 0.00 | 0.33 | 0.33 | 95 | 925.9 |
| 20260505172911 | 1 | 96 | 1.6 | 3.2 | 0.00 | 0.33 | 0.33 | 95 | 925.7 |
| 20260505172409 | 1 | 60 | 0.0 | 1.6 | 0.00 | 0.33 | 0.33 | 95 | 925.7 |
| 20260505171908 | 1 | 82 | 3.2 | 3.2 | 0.00 | 0.33 | 0.33 | 95 | 925.7 |
| 20260505171405 | 1 | 54 | 4.8 | 4.8 | 0.00 | 0.33 | 0.33 | 95 | 925.6 |
| 20260505170902 | 1 | 51 | 4.8 | 8.0 | 0.18 | 0.33 | 0.33 | 95 | 925.7 |
| 20260505170359 | 2 | 65 | 1.6 | 12.9 | 0.18 | 0.33 | 0.33 | 95 | 925.4 |
| 20260505165854 | 2 | 37 | 1.6 | 14.5 | 0.18 | 0.30 | 0.30 | 95 | 925.6 |
| 20260505165350 | 2 | 63 | 3.2 | 11.3 | 0.30 | 0.30 | 0.30 | 95 | 925.4 |
| 20260505164846 | 2 | 79 | 1.6 | 9.7 | 0.13 | 0.28 | 0.28 | 95 | 925.5 |
| 20260505164342 | 2 | 80 | 4.8 | 9.7 | 0.18 | 0.25 | 0.25 | 95 | 925.7 |
| 20260505163841 | 2 | 70 | 4.8 | 11.3 | 0.18 | 0.25 | 0.25 | 95 | 925.6 |
| 20260505163339 | 2 | 67 | 3.2 | 3.2 | 0.00 | 0.23 | 0.23 | 94 | 926.3 |
| 20260505162838 | 2 | 70 | 3.2 | 9.7 | 0.00 | 0.23 | 0.23 | 94 | 926.2 |
| 20260505162333 | 1 | 68 | 8.0 | 11.3 | 0.00 | 0.23 | 0.23 | 94 | 926.5 |
| 20260505161831 | 1 | 78 | 6.4 | 9.7 | 0.00 | 0.23 | 0.23 | 94 | 926.7 |
| 20260505161328 | 1 | 41 | 1.6 | 4.8 | 0.00 | 0.23 | 0.23 | 93 | 927.0 |
| 20260505160825 | 2 | 49 | 6.4 | 9.7 | 0.00 | 0.23 | 0.23 | 93 | 926.5 |
| 20260505160323 | 2 | 61 | 6.4 | 14.5 | 0.00 | 0.23 | 0.23 | 92 | 925.6 |
| 20260505153301 | 4 | 37 | 11.3 | 16.1 | 0.00 | 0.10 | 0.10 | 88 | 924.8 |
| 20260505152800 | 4 | 81 | 8.0 | 14.5 | 0.00 | 0.10 | 0.10 | 88 | 924.8 |
| 20260505152256 | 4 | 36 | 8.0 | 11.3 | 0.00 | 0.10 | 0.10 | 87 | 924.7 |
| 20260505151755 | 4 | 71 | 9.7 | 14.5 | 0.00 | 0.10 | 0.10 | 88 | 924.7 |
| 20260505151253 | 4 | 104 | 8.0 | 11.3 | 0.00 | 0.10 | 0.10 | 88 | 924.3 |
| 20260505150750 | 4 | 106 | 8.0 | 12.9 | 0.00 | 0.10 | 0.10 | 89 | 924.6 |
| 20260505150247 | 4 | 114 | 8.0 | 9.7 | 0.00 | 0.10 | 0.10 | 89 | 924.6 |
| 20260505140211 | 4 | 70 | 3.2 | 11.3 | 0.00 | 0.08 | 0.08 | 88 | 924.7 |
| 20260505130135 | 5 | 92 | 14.5 | 16.1 | 0.00 | 0.05 | 0.05 | 78 | 923.9 |
| 20260505124624 | 5 | 87 | 11.3 | 17.7 | 0.00 | 0.05 | 0.05 | 80 | 923.9 |
| 20260505124121 | 5 | 97 | 14.5 | 20.9 | 0.00 | 0.05 | 0.05 | 80 | 923.9 |
| 20260505123617 | 5 | 90 | 11.3 | 12.9 | 0.00 | 0.05 | 0.05 | 81 | 923.7 |
| 20260505123114 | 5 | 70 | 6.4 | 14.5 | 0.00 | 0.05 | 0.05 | 81 | 923.7 |
| 20260505122611 | 5 | 102 | 11.3 | 12.9 | 0.00 | 0.05 | 0.05 | 82 | 923.9 |
| 20260505122108 | 5 | 94 | 6.4 | 12.9 | 0.00 | 0.05 | 0.05 | 84 | 923.9 |
| 20260505121604 | 5 | 66 | 8.0 | 11.3 | 0.00 | 0.05 | 0.05 | 85 | 923.8 |
| 20260505121101 | 5 | 55 | 11.3 | 14.5 | 0.00 | 0.05 | 0.05 | 87 | 923.9 |
| 20260505120557 | 5 | 79 | 6.4 | 12.9 | 0.00 | 0.05 | 0.05 | 87 | 923.9 |
| 20260505120053 | 5 | 61 | 3.2 | 8.0 | 0.00 | 0.05 | 0.05 | 87 | 923.8 |
| 20260505115547 | 5 | 55 | 4.8 | 9.7 | 0.00 | 0.05 | 0.05 | 86 | 923.7 |
| 20260505115045 | 5 | 65 | 4.8 | 11.3 | 0.18 | 0.05 | 0.05 | 85 | 923.9 |
| 20260505114542 | 6 | 104 | 4.8 | 11.3 | 0.30 | 0.05 | 0.05 | 84 | 923.7 |
| 20260505114038 | 6 | 46 | 1.6 | 9.7 | 0.13 | 0.03 | 0.03 | 81 | 923.7 |
| 20260505113535 | 6 | 56 | 3.2 | 9.7 | 0.00 | 0.00 | 0.00 | 76 | 923.7 |
| 20260505113032 | 6 | 87 | 6.4 | 9.7 | 0.00 | 0.00 | 0.00 | 76 | 923.7 |
| 20260505112528 | 6 | 79 | 1.6 | 9.7 | 0.00 | 0.00 | 0.00 | 75 | 923.8 |
| 20260505112026 | 7 | 33 | 0.0 | 0.0 | 0.00 | 0.00 | 0.00 | 74 | 923.7 |
| 20260505111520 | 7 | 32 | 1.6 | 3.2 | 0.00 | 0.00 | 0.00 | 74 | 923.8 |
| 20260505111017 | 7 | 351 | 4.8 | 8.0 | 0.00 | 0.00 | 0.00 | 74 | 923.7 |
| 20260505110513 | 7 | 2 | 4.8 | 8.0 | 0.00 | 0.00 | 0.00 | 74 | 923.8 |
| 20260505101945 | 8 | 1 | 6.4 | 12.9 | 0.00 | 0.00 | 0.00 | 76 | 923.5 |
| 20260505101443 | 8 | 354 | 0.0 | 3.2 | 0.00 | 0.00 | 0.00 | 75 | 923.5 |
| 20260505100939 | 8 | 6 | 0.0 | 0.0 | 0.00 | 0.00 | 0.00 | 75 | 923.5 |
| 20260505100438 | 8 | 340 | 0.0 | 4.8 | 0.00 | 0.00 | 0.00 | 74 | 923.5 |
| 20260505095933 | 8 | 272 | 4.8 | 9.7 | 0.00 | 0.00 | 0.00 | 73 | 923.3 |
| 20260505095430 | 8 | 257 | 0.0 | 0.0 | 0.00 | 0.00 | 0.00 | 71 | 923.3 |
| 20260505094926 | 9 | 258 | 0.0 | 4.8 | 0.00 | 0.00 | 0.00 | 69 | 923.5 |
| 20260505094423 | 9 | 299 | 4.8 | 9.7 | 0.00 | 0.00 | 0.00 | 68 | 923.3 |
| 20260505093919 | 9 | 226 | 8.0 | 9.7 | 0.00 | 0.00 | 0.00 | 66 | 923.5 |
| 20260505093416 | 9 | 254 | 8.0 | 9.7 | 0.00 | 0.00 | 0.00 | 65 | 923.2 |
| 20260505092913 | 9 | 254 | 6.4 | 8.0 | 0.00 | 0.00 | 0.00 | 66 | 923.6 |
| 20260505092411 | 9 | 214 | 1.6 | 8.0 | 0.00 | 0.00 | 0.00 | 67 | 923.2 |
| 20260505091908 | 9 | 189 | 3.2 | 9.7 | 0.00 | 0.00 | 0.00 | 67 | 923.6 |
| 20260505091406 | 9 | 202 | 6.4 | 9.7 | 0.00 | 0.00 | 0.00 | 67 | 923.6 |
| 20260505090904 | 10 | 216 | 4.8 | 12.9 | 0.00 | 0.00 | 0.00 | 66 | 923.3 |
| 20260505090402 | 10 | 236 | 9.7 | 16.1 | 0.00 | 0.00 | 0.00 | 65 | 923.6 |
| 20260505085859 | 10 | 185 | 6.4 | 12.9 | 0.00 | 0.00 | 0.00 | 64 | 923.6 |
| 20260505085357 | 10 | 192 | 8.0 | 12.9 | 0.00 | 0.00 | 0.00 | 63 | 923.5 |
| 20260505084854 | 10 | 195 | 4.8 | 11.3 | 0.00 | 0.00 | 0.00 | 63 | 923.5 |
| 20260505084352 | 10 | 139 | 4.8 | 12.9 | 0.00 | 0.00 | 0.00 | 63 | 923.6 |
| 20260505083850 | 10 | 204 | 8.0 | 12.9 | 0.00 | 0.00 | 0.00 | 62 | 923.3 |
| 20260505083347 | 10 | 200 | 12.9 | 17.7 | 0.00 | 0.00 | 0.00 | 62 | 923.3 |
| 20260505082843 | 10 | 213 | 4.8 | 9.7 | 0.00 | 0.00 | 0.00 | 62 | 923.5 |